This is the latest recevied weather packets stored in our database for station/object SQ3MKP-13. If no packets are shown the sender has not sent any weather packets the latest 10 day(s).
| Time | Temp. | Humidity | Pressure | Rain* | Wind** | Luminosity | Snow |
|---|---|---|---|---|---|---|---|
| 1777134146 | 16.11° C | 42% | 998.7 hPa | - | - | 74 W/m² | - |
| 1777133846 | 16.11° C | 41% | 998.7 hPa | - | - | 82 W/m² | - |
| 1777133545 | 16.11° C | 42% | 998.7 hPa | - | - | 87 W/m² | - |
| 1777133244 | 16.11° C | 42% | 999.1 hPa | - | - | 99 W/m² | - |
| 1777132943 | 16.11° C | 42% | 998.8 hPa | - | - | 112 W/m² | - |
| 1777132642 | 16.67° C | 41% | 998.9 hPa | - | - | 126 W/m² | - |
| 1777132343 | 16.11° C | 40% | 998.8 hPa | - | - | 137 W/m² | - |
| 1777132039 | 16.67° C | 40% | 999 hPa | - | - | 149 W/m² | - |
| 1777131739 | 16.67° C | 40% | 999 hPa | - | - | 151 W/m² | - |
| 1777131437 | 16.11° C | 40% | 999 hPa | - | - | 172 W/m² | - |
| 1777131136 | 16.11° C | 41% | 999.1 hPa | - | - | 183 W/m² | - |
| 1777130836 | 16.11° C | 40% | 999.2 hPa | - | - | 186 W/m² | - |
| 1777130535 | 16.67° C | 40% | 999.2 hPa | - | - | 207 W/m² | - |
| 1777130234 | 16.11° C | 39% | 999.2 hPa | - | - | 218 W/m² | - |
| 1777129933 | 16.67° C | 39% | 999.2 hPa | - | - | 224 W/m² | - |
| 1777129632 | 16.67° C | 40% | 999.3 hPa | - | - | 241 W/m² | - |
| 1777129331 | 16.67° C | 39% | 999.3 hPa | - | - | 253 W/m² | - |
| 1777129029 | 16.67° C | 39% | 999.2 hPa | - | - | 264 W/m² | - |
| 1777128728 | 16.11° C | 40% | 999.2 hPa | - | - | 276 W/m² | - |
| 1777128427 | 16.67° C | 41% | 999.2 hPa | - | - | 290 W/m² | - |
| 1777128126 | 16.11° C | 40% | 999.3 hPa | - | - | 303 W/m² | - |
| 1777127825 | 16.11° C | 39% | 999.3 hPa | - | - | 316 W/m² | - |
| 1777127524 | 16.11° C | 39% | 999.3 hPa | - | - | 326 W/m² | - |
| 1777127224 | 16.11° C | 40% | 999.4 hPa | - | - | 107 W/m² | - |
| 1777126923 | 16.67° C | 40% | 999.3 hPa | - | - | 74 W/m² | - |
* Rain since midnight (hover to see other rain measurements)
** Current wind speed in m/s (hover to see current wind gust speed)